| time (UTC) | temp F | wind direction | speed knots | gust knots | rain 1hr in | rain 24hr in | rain mn in | humidity % | barometer mb |
| 20260508141019 | 83 | 246 | 2.6 | 36.5 | 0.00 | 0.00 | 0.00 | 100 | 1010.1 |
| 20260508140020 | 83 | 292 | 1.7 | 33.9 | 0.00 | 0.00 | 0.00 | 100 | 1010.0 |
| 20260508135035 | 83 | 333 | 1.7 | 34.8 | 0.00 | 0.00 | 0.00 | 100 | 1009.9 |
| 20260508134037 | 83 | 242 | 2.6 | 39.1 | 0.00 | 0.00 | 0.00 | 100 | 1009.7 |
| 20260508133017 | 83 | 240 | 1.7 | 33.9 | 0.00 | 0.00 | 0.00 | 100 | 1009.5 |
| 20260508132039 | 84 | 244 | 1.7 | 33.0 | 0.00 | 0.00 | 0.00 | 100 | 1009.4 |
| 20260508131020 | 84 | 260 | 2.6 | 37.4 | 0.00 | 0.00 | 0.00 | 100 | 1009.3 |
| 20260508130041 | 84 | 335 | 2.6 | 37.4 | 0.00 | 0.00 | 0.00 | 100 | 1009.2 |
| 20260508125018 | 84 | 317 | 2.6 | 37.4 | 0.00 | 0.00 | 0.00 | 100 | 1009.0 |
| 20260508124018 | 85 | 339 | 2.6 | 37.4 | 0.00 | 0.00 | 0.00 | 100 | 1008.7 |
| 20260508123018 | 85 | 327 | 1.7 | 35.6 | 0.00 | 0.00 | 0.00 | 100 | 1008.5 |
| 20260508122019 | 85 | 261 | 1.7 | 20.0 | 0.00 | 0.00 | 0.00 | 100 | 1008.3 |
| 20260508121020 | 85 | 282 | 1.7 | 33.0 | 0.00 | 0.00 | 0.00 | 100 | 1008.2 |
| 20260508120022 | 86 | 275 | 1.7 | 36.5 | 0.00 | 0.00 | 0.00 | 100 | 1008.1 |
| 20260508115021 | 86 | 249 | 2.6 | 38.2 | 0.00 | 0.00 | 0.00 | 100 | 1008.1 |
| 20260508114017 | 86 | 249 | 1.7 | 36.5 | 0.00 | 0.00 | 0.00 | 100 | 1008.0 |
| 20260508113017 | 87 | 240 | 2.6 | 37.4 | 0.00 | 0.00 | 0.00 | 100 | 1008.1 |
| 20260508112018 | 87 | 242 | 2.6 | 38.2 | 0.00 | 0.00 | 0.00 | 100 | 1008.1 |
| 20260508111019 | 87 | 243 | 2.6 | 38.2 | 0.00 | 0.00 | 0.00 | 100 | 1008.1 |
| 20260508110019 | 87 | 241 | 1.7 | 13.9 | 0.00 | 0.00 | 0.00 | 100 | 1008.0 |
| 20260508105020 | 87 | 283 | 2.6 | 40.0 | 0.00 | 0.00 | 0.00 | 100 | 1008.0 |
| 20260508104039 | 87 | 294 | 1.7 | 33.9 | 0.00 | 0.00 | 0.00 | 100 | 1007.9 |
| 20260508103017 | 87 | 249 | 2.6 | 37.4 | 0.00 | 0.00 | 0.00 | 100 | 1007.8 |
| 20260508102039 | 87 | 272 | 1.7 | 35.6 | 0.00 | 0.00 | 0.00 | 100 | 1007.7 |
| 20260508101018 | 87 | 248 | 2.6 | 38.2 | 0.00 | 0.00 | 0.00 | 100 | 1007.7 |
| 20260508100040 | 88 | 254 | 2.6 | 37.4 | 0.00 | 0.00 | 0.00 | 100 | 1007.6 |
| 20260508095020 | 88 | 244 | 2.6 | 36.5 | 0.00 | 0.00 | 0.00 | 100 | 1007.4 |
| 20260508094016 | 88 | 255 | 1.7 | 34.8 | 0.00 | 0.00 | 0.00 | 100 | 1007.4 |
| 20260508093016 | 88 | 245 | 2.6 | 39.1 | 0.00 | 0.00 | 0.00 | 100 | 1007.5 |
| 20260508092018 | 88 | 324 | 1.7 | 28.7 | 0.00 | 0.00 | 0.00 | 100 | 1007.8 |
| 20260508091020 | 87 | 298 | 2.6 | 37.4 | 0.00 | 0.00 | 0.00 | 100 | 1008.0 |
| 20260508090020 | 86 | 255 | 1.7 | 33.9 | 0.00 | 0.00 | 0.00 | 100 | 1007.7 |
| 20260508085020 | 86 | 243 | 1.7 | 35.6 | 0.00 | 0.00 | 0.00 | 100 | 1007.4 |
| 20260508084016 | 86 | 243 | 2.6 | 36.5 | 0.00 | 0.00 | 0.00 | 100 | 1007.4 |
| 20260508083018 | 86 | 283 | 2.6 | 36.5 | 0.00 | 0.00 | 0.00 | 100 | 1007.4 |
| 20260508082017 | 85 | 335 | 2.6 | 40.8 | 0.00 | 0.00 | 0.00 | 100 | 1007.4 |
| 20260508081018 | 85 | 337 | 2.6 | 37.4 | 0.00 | 0.00 | 0.00 | 100 | 1007.5 |
| 20260508080041 | 85 | 302 | 1.7 | 36.5 | 0.00 | 0.00 | 0.00 | 100 | 1007.8 |
| 20260508075020 | 85 | 343 | 1.7 | 35.6 | 0.00 | 0.00 | 0.00 | 100 | 1008.0 |
| 20260508074016 | 85 | 324 | 2.6 | 37.4 | 0.00 | 0.00 | 0.00 | 100 | 1008.1 |
| 20260508073016 | 86 | 330 | 2.6 | 38.2 | 0.00 | 0.00 | 0.00 | 100 | 1008.5 |
| 20260508072017 | 86 | 326 | 1.7 | 35.6 | 0.00 | 0.00 | 0.00 | 100 | 1008.9 |
| 20260508071018 | 86 | 285 | 1.7 | 13.9 | 0.00 | 0.00 | 0.00 | 100 | 1008.9 |
| 20260508070020 | 86 | 298 | 1.7 | 34.8 | 0.00 | 0.00 | 0.00 | 100 | 1008.9 |
| 20260508065020 | 86 | 293 | 1.7 | 35.6 | 0.00 | 0.00 | 0.00 | 100 | 1009.1 |
| 20260508064020 | 86 | 347 | 2.6 | 37.4 | 0.00 | 0.00 | 0.00 | 100 | 1009.4 |
| 20260508063018 | 87 | 350 | 2.6 | 40.0 | 0.00 | 0.00 | 0.00 | 100 | 1009.6 |
| 20260508062018 | 89 | 352 | 1.7 | 28.7 | 0.00 | 0.00 | 0.00 | 100 | 1010.1 |
| 20260508061018 | 90 | 343 | 2.6 | 37.4 | 0.00 | 0.00 | 0.00 | 100 | 1010.0 |
| 20260508060019 | 91 | 355 | 2.6 | 37.4 | 0.00 | 0.00 | 0.00 | 100 | 1009.9 |
| 20260508055019 | 92 | 336 | 2.6 | 38.2 | 0.00 | 0.00 | 0.00 | 100 | 1009.3 |
| 20260508054021 | 92 | 307 | 1.7 | 19.1 | 0.00 | 0.00 | 0.00 | 100 | 1009.5 |
| 20260508053038 | 91 | 339 | 1.7 | 33.9 | 0.00 | 0.00 | 0.00 | 100 | 1009.7 |
| 20260508052017 | 91 | 339 | 2.6 | 39.1 | 0.00 | 0.00 | 0.00 | 100 | 1009.9 |
| 20260508051017 | 91 | 341 | 1.7 | 35.6 | 0.00 | 0.00 | 0.00 | 100 | 1010.3 |
| 20260508050019 | 91 | 343 | 2.6 | 40.8 | 0.00 | 0.00 | 0.00 | 100 | 1010.3 |
| 20260508045020 | 91 | 320 | 2.6 | 37.4 | 0.00 | 0.00 | 0.00 | 100 | 1010.4 |
| 20260508044020 | 91 | 338 | 2.6 | 37.4 | 0.00 | 0.00 | 0.00 | 100 | 1010.6 |
| 20260508043016 | 90 | 326 | 2.6 | 39.1 | 0.00 | 0.00 | 0.00 | 100 | 1010.7 |
| 20260508042037 | 90 | 324 | 2.6 | 40.0 | 0.00 | 0.00 | 0.00 | 100 | 1010.7 |
| 20260508041037 | 89 | 308 | 2.6 | 37.4 | 0.00 | 0.00 | 0.00 | 100 | 1010.8 |
| 20260508040019 | 89 | 335 | 1.7 | 33.0 | 0.00 | 0.00 | 0.00 | 100 | 1011.0 |
| 20260508035019 | 89 | 336 | 1.7 | 35.6 | 0.00 | 0.00 | 0.00 | 100 | 1011.1 |
| 20260508034040 | 89 | 341 | 1.7 | 35.6 | 0.00 | 0.00 | 0.00 | 100 | 1011.1 |
| 20260508033016 | 89 | 337 | 2.6 | 38.2 | 0.00 | 0.00 | 0.00 | 100 | 1011.0 |
| 20260508032017 | 88 | 301 | 1.7 | 30.4 | 0.00 | 0.00 | 0.00 | 100 | 1011.1 |
| 20260508031017 | 87 | 288 | 2.6 | 40.0 | 0.00 | 0.00 | 0.00 | 100 | 1011.2 |
| 20260508030018 | 87 | 277 | 1.7 | 30.4 | 0.00 | 0.00 | 0.00 | 100 | 1011.4 |
| 20260508025019 | 86 | 265 | 1.7 | 33.9 | 0.00 | 0.00 | 0.00 | 100 | 1011.4 |
| 20260508024020 | 86 | 292 | 2.6 | 37.4 | 0.00 | 0.00 | 0.00 | 100 | 1011.4 |
| 20260508023015 | 85 | 303 | 1.7 | 32.2 | 0.00 | 0.00 | 0.00 | 100 | 1011.4 |
| 20260508022017 | 85 | 261 | 1.7 | 33.9 | 0.00 | 0.00 | 0.00 | 100 | 1011.4 |
| 20260508021017 | 85 | 298 | 2.6 | 38.2 | 0.00 | 0.00 | 0.00 | 100 | 1011.3 |
| 20260508020018 | 85 | 329 | 1.7 | 34.8 | 0.00 | 0.00 | 0.00 | 100 | 1011.3 |
| 20260508015019 | 85 | 294 | 2.6 | 38.2 | 0.00 | 0.00 | 0.00 | 100 | 1011.1 |
| 20260508014040 | 85 | 341 | 2.6 | 38.2 | 0.00 | 0.00 | 0.00 | 100 | 1011.1 |
| 20260508013017 | 85 | 352 | 2.6 | 40.0 | 0.00 | 0.00 | 0.00 | 100 | 1010.9 |
| 20260508012036 | 84 | 350 | 2.6 | 36.5 | 0.00 | 0.00 | 0.00 | 100 | 1010.8 |
| 20260508011017 | 83 | 342 | 2.6 | 40.0 | 0.00 | 0.00 | 0.00 | 100 | 1010.7 |
| 20260508010018 | 83 | 333 | 2.6 | 39.1 | 0.00 | 0.00 | 0.00 | 100 | 1010.6 |
| 20260508005019 | 82 | 339 | 2.6 | 37.4 | 0.00 | 0.00 | 0.00 | 100 | 1010.6 |
| 20260508004019 | 81 | 343 | 1.7 | 35.6 | 0.00 | 0.00 | 0.00 | 100 | 1010.4 |
| 20260508003021 | 81 | 340 | 1.7 | 35.6 | 0.00 | 0.00 | 0.00 | 100 | 1010.3 |
| 20260508002038 | 80 | 294 | 1.7 | 27.8 | 0.00 | 0.00 | 0.00 | 100 | 1010.1 |
| 20260508001018 | 80 | 256 | 2.6 | 38.2 | 0.00 | 0.00 | 0.00 | 100 | 1010.1 |
| 20260508000039 | 80 | 259 | 1.7 | 22.6 | 0.00 | 0.00 | 0.00 | 100 | 1009.9 |
| 20260507235020 | 80 | 252 | 1.7 | 35.6 | 0.00 | 0.00 | 0.00 | 100 | 1009.8 |
| 20260507234039 | 80 | 244 | 2.6 | 37.4 | 0.00 | 0.00 | 0.00 | 100 | 1009.7 |
| 20260507233020 | 79 | 255 | 2.6 | 36.5 | 0.00 | 0.00 | 0.00 | 100 | 1009.6 |
| 20260507232016 | 79 | 252 | 1.7 | 32.2 | 0.00 | 0.00 | 0.00 | 100 | 1009.5 |
| 20260507231016 | 79 | 263 | 1.7 | 34.8 | 0.00 | 0.00 | 0.00 | 100 | 1009.4 |
| 20260507230017 | 79 | 260 | 2.6 | 38.2 | 0.00 | 0.00 | 0.00 | 100 | 1009.4 |
| 20260507225018 | 79 | 245 | 2.6 | 38.2 | 0.00 | 0.00 | 0.00 | 100 | 1009.3 |
| 20260507224020 | 80 | 249 | 2.6 | 39.1 | 0.00 | 0.00 | 0.00 | 100 | 1009.1 |
| 20260507223022 | 80 | 252 | 2.6 | 40.0 | 0.00 | 0.00 | 0.00 | 100 | 1009.1 |
| 20260507222016 | 80 | 253 | 2.6 | 40.0 | 0.00 | 0.00 | 0.00 | 100 | 1009.0 |
| 20260507221017 | 80 | 257 | 2.6 | 37.4 | 0.00 | 0.00 | 0.00 | 100 | 1008.9 |
| 20260507220038 | 80 | 247 | 2.6 | 38.2 | 0.00 | 0.00 | 0.00 | 100 | 1008.7 |
| 20260507215018 | 80 | 246 | 2.6 | 37.4 | 0.00 | 0.00 | 0.00 | 100 | 1008.7 |
| 20260507214019 | 80 | 248 | 1.7 | 31.3 | 0.00 | 0.00 | 0.00 | 100 | 1008.6 |
| 20260507213021 | 80 | 246 | 1.7 | 34.8 | 0.00 | 0.00 | 0.00 | 100 | 1008.6 |
| 20260507212017 | 80 | 249 | 1.7 | 16.5 | 0.00 | 0.00 | 0.00 | 100 | 1008.5 |
| 20260507211037 | 80 | 249 | 1.7 | 33.9 | 0.00 | 0.00 | 0.00 | 100 | 1008.5 |
| 20260507210037 | 80 | 252 | 1.7 | 35.6 | 0.00 | 0.00 | 0.00 | 100 | 1008.4 |
| 20260507205018 | 80 | 245 | 2.6 | 37.4 | 0.00 | 0.00 | 0.00 | 100 | 1008.4 |
| 20260507204019 | 80 | 266 | 1.7 | 35.6 | 0.00 | 0.00 | 0.00 | 100 | 1008.4 |
| 20260507203020 | 80 | 248 | 1.7 | 36.5 | 0.00 | 0.00 | 0.00 | 100 | 1008.3 |
| 20260507202015 | 80 | 244 | 2.6 | 40.0 | 0.00 | 0.00 | 0.00 | 100 | 1008.3 |
| 20260507201018 | 80 | 255 | 2.6 | 36.5 | 0.00 | 0.00 | 0.00 | 100 | 1008.2 |
| 20260507200018 | 80 | 248 | 2.6 | 37.4 | 0.00 | 0.00 | 0.00 | 100 | 1008.3 |
| 20260507195020 | 81 | 251 | 1.7 | 35.6 | 0.00 | 0.00 | 0.00 | 100 | 1008.5 |
| 20260507194019 | 81 | 250 | 2.6 | 36.5 | 0.00 | 0.00 | 0.00 | 100 | 1008.6 |
| 20260507193019 | 81 | 248 | 2.6 | 39.1 | 0.00 | 0.00 | 0.00 | 100 | 1008.7 |
| 20260507192036 | 81 | 245 | 2.6 | 39.1 | 0.00 | 0.00 | 0.00 | 100 | 1008.9 |
| 20260507191017 | 81 | 263 | 2.6 | 39.1 | 0.00 | 0.00 | 0.00 | 100 | 1009.1 |
| 20260507190018 | 81 | 256 | 2.6 | 39.1 | 0.00 | 0.00 | 0.00 | 100 | 1009.3 |
| 20260507185019 | 81 | 243 | 1.7 | 29.5 | 0.00 | 0.00 | 0.00 | 100 | 1009.4 |
| 20260507184019 | 81 | 244 | 2.6 | 37.4 | 0.00 | 0.00 | 0.00 | 100 | 1009.4 |
| 20260507183020 | 81 | 248 | 2.6 | 37.4 | 0.00 | 0.00 | 0.00 | 100 | 1009.6 |
| 20260507182037 | 81 | 247 | 1.7 | 26.1 | 0.00 | 0.00 | 0.00 | 100 | 1009.8 |
| 20260507181017 | 81 | 270 | 2.6 | 38.2 | 0.00 | 0.00 | 0.00 | 100 | 1009.8 |
| 20260507180017 | 81 | 340 | 2.6 | 36.5 | 0.00 | 0.00 | 0.00 | 100 | 1009.9 |
| 20260507175039 | 81 | 261 | 2.6 | 36.5 | 0.00 | 0.00 | 0.00 | 100 | 1009.9 |
| 20260507174019 | 81 | 251 | 2.6 | 37.4 | 0.00 | 0.00 | 0.00 | 100 | 1010.1 |
| 20260507173021 | 81 | 250 | 1.7 | 34.8 | 0.00 | 0.00 | 0.00 | 100 | 1010.2 |
| 20260507172057 | 81 | 256 | 1.7 | 24.3 | 0.00 | 0.00 | 0.00 | 100 | 1010.3 |
| 20260507171036 | 81 | 258 | 2.6 | 37.4 | 0.00 | 0.00 | 0.00 | 100 | 1010.3 |
| 20260507170022 | 81 | 260 | 2.6 | 36.5 | 0.00 | 0.00 | 0.00 | 100 | 1010.4 |
| 20260507165019 | 81 | 254 | 2.6 | 40.0 | 0.00 | 0.00 | 0.00 | 100 | 1010.5 |
| 20260507164040 | 81 | 257 | 2.6 | 37.4 | 0.00 | 0.00 | 0.00 | 100 | 1010.5 |
| 20260507163019 | 81 | 252 | 2.6 | 38.2 | 0.00 | 0.00 | 0.00 | 100 | 1010.6 |
| 20260507162016 | 81 | 249 | 1.7 | 26.9 | 0.00 | 0.00 | 0.00 | 100 | 1010.6 |
| 20260507161016 | 81 | 251 | 2.6 | 39.1 | 0.00 | 0.00 | 0.00 | 100 | 1010.5 |
| 20260507160017 | 81 | 255 | 2.6 | 39.1 | 0.00 | 0.00 | 0.00 | 100 | 1010.6 |
| 20260507155018 | 81 | 250 | 2.6 | 37.4 | 0.00 | 0.00 | 0.00 | 100 | 1010.6 |
| 20260507154019 | 81 | 247 | 1.7 | 34.8 | 0.00 | 0.00 | 0.00 | 100 | 1010.5 |
| 20260507153020 | 82 | 250 | 1.7 | 35.6 | 0.00 | 0.00 | 0.00 | 100 | 1010.5 |
| 20260507152036 | 82 | 243 | 2.6 | 38.2 | 0.00 | 0.00 | 0.00 | 100 | 1010.5 |
| 20260507151016 | 82 | 252 | 1.7 | 27.8 | 0.00 | 0.00 | 0.00 | 100 | 1010.4 |
| 20260507150017 | 82 | 265 | 1.7 | 34.8 | 0.00 | 0.00 | 0.00 | 100 | 1010.4 |
| 20260507145018 | 82 | 259 | 2.6 | 36.5 | 0.00 | 0.00 | 0.00 | 100 | 1010.4 |
| 20260507144019 | 82 | 258 | 1.7 | 34.8 | 0.00 | 0.00 | 0.00 | 100 | 1010.5 |
| 20260507143039 | 82 | 263 | 2.6 | 40.0 | 0.00 | 0.00 | 0.00 | 100 | 1010.6 |
| 20260507142016 | 82 | 247 | 2.6 | 40.0 | 0.00 | 0.00 | 0.00 | 100 | 1010.7 |